Location: Atlantic Beach
(40.5890°N, 73.7290°W)
Time: 04:19:35
(UTC+00:00)

Hubble Space Telescope - Pass Details

Date: 23 January 2021
Orbit: 535 x 539 km, 28.5° (Epoch: 03 March)

Event Time Altitude Azimuth Distance (km) Brightness Sun altitude
Rises 00:03:51 0° 244° (WSW) 2,674 5.5 -23.2°
Reaches altitude 10° 00:07:02 10° 219° (SW) 1,783 4.0 -23.8°
Maximum altitude 00:09:11 14° 187° (S) 1,550 3.2 -24.2°
Enters shadow 00:09:41 14° 179° (S) 1,564 3.1 -24.3°
